Location: Newark
(52.3500°N, 175.9667°E)
Time: 20:43:39
(UTC+00:00)

Transit 4A - Pass Details

Date: 24 April 2021
Orbit: 871 x 974 km, 66.8° (Epoch: 16 May)

Event Time Altitude Azimuth Distance (km) Brightness Sun altitude
Rises 10:02:55 0° 182° (S) 3,620 - -18.8°
Reaches altitude 10° 10:05:44 10° 173° (S) 2,665 - -19.0°
Exits shadow 10:10:28 31° 124° (SE) 1,576 8.6 -19.4°
Maximum altitude 10:11:06 32° 113° (ESE) 1,553 8.6 -19.5°
Drops below altitude 10° 10:16:23 10° 52° (NE) 2,617 10.3 -19.9°
Sets 10:19:06 0° 43° (NE) 3,546 11.2 -20.1°
